Miscellaneous Local Product
Issued by NWS Hastings, NE

Home | Current Version | Previous Version | Text Only | Print | Product List | Glossary Off
Versions: 1 2 3 4 5 6 7 8 9 10 11 12 13 14 15 16 17 18 19 20 21 22 23 24 25 26 27 28 29 30 31 32 33 34 35 36 37 38 39 40 41 42 43 44 45 46 47 48 49 50

000
AXUS43 KGID 250102
MISGRI

GID CWA HOURLY WEATHER ROUNDUP
NATIONAL WEATHER SERVICE HASTINGS NE
800 PM CDT FRI OCT 24 2014

NOTE: "FAIR" INDICATES FEW OR NO CLOUDS BELOW 12,000 FEET WITH NO
SIGNIFICANT WEATHER AND/OR OBSTRUCTIONS TO VISIBILITY.

...SOUTH CENTRAL NEBRASKA...

CITY           SKY/WX    TMP DP  RH WIND       PRES   REMARKS
GRAND ISLAND   CLEAR     57  47  69 NE7       30.00R
HASTINGS       CLEAR     61  47  59 CALM      29.99R
KEARNEY        CLEAR     61  46  59 N6        30.01R
ORD            CLEAR     53  43  68 CALM      29.99R
YORK           CLEAR     59  52  77 N6        29.99R
AURORA         CLEAR     61  47  60 N6        29.99R
LEXINGTON      CLEAR     63  41  45 CALM      30.00R
HOLDREGE       CLEAR     63  34  33 CALM      30.00R
HEBRON         CLEAR     63  50  63 CALM      29.97R

...NEBRASKA PANHANDLE...

CITY           SKY/WX    TMP DP  RH WIND       PRES   REMARKS
CHADRON        CLEAR     57  39  51 N3        30.04R
ALLIANCE       CLEAR     57  36  45 E3        30.04R
SCOTTSBLUFF    CLEAR     58  32  37 NW7       30.05R
SIDNEY         CLEAR     56  35  45 S6        30.11R

...WESTERN AND NORTH CENTRAL NEBRASKA...

CITY           SKY/WX    TMP DP  RH WIND       PRES   REMARKS
VALENTINE      CLEAR     62  35  36 N7        30.01R
AINSWORTH      CLEAR     57  36  45 E5        30.02R
ONEILL         CLEAR     63  39  41 SE3       30.00R
BROKEN BOW     CLEAR     57  40  52 N3        30.00R
IMPERIAL       CLEAR     64  35  34 NE7       30.05R
NORTH PLATTE   CLEAR     58  37  45 CALM      30.02R
MCCOOK         CLEAR     69  31  24 NW3       30.02R

...EASTERN NEBRASKA...

CITY           SKY/WX    TMP DP  RH WIND       PRES   REMARKS
NORFOLK        CLEAR     55  47  74 SW3       29.98R
SO SIOUX CITY  PTCLDY    57  46  66 W5        29.95R
TEKAMAH        PTCLDY    60  49  66 W3        29.95R
COLUMBUS       CLEAR     55  46  71 NW6       30.00R
ALBION         CLEAR     55  42  62 CALM      30.00R
OMAHA EPPLEY   PTCLDY    62  57  83 CALM      29.95R
OFFUTT AFB     CLEAR     57  57 100 CALM      29.94R
MILLARD        CLEAR     62  58  88 CALM      29.95R
LINCOLN        CLEAR     62  53  72 CALM      29.97R
NEBRASKA CITY  CLEAR     66  56  69 N6        29.96R
BEATRICE       CLEAR     64  56  76 CALM      29.96R
FALLS CITY     CLEAR     70  61  73 NW3       29.94R

...NORTHERN KANSAS...

CITY           SKY/WX    TMP DP  RH WIND       PRES   REMARKS
GOODLAND       CLEAR     59  38  45 CALM      30.09R
HILL CITY      CLEAR     61  45  55 CALM      30.01R
NORTON         CLEAR     68  30  24 W5        30.00S
PHILLIPSBURG   CLEAR     72  45  37 CALM      29.99R
SMITH CENTER   CLEAR     72  43  35 S7        29.98R
BELOIT         CLEAR     64  52  63 CALM      29.96R
HAYS           CLEAR     70  52  52 CALM      30.01R
RUSSELL        CLEAR     68  54  60 S10       29.98R
CONCORDIA      CLEAR     68  52  56 W6        29.96R
SALINA         CLEAR     70  61  73 S6        29.97R
TOPEKA         CLEAR     71  63  75 CALM      29.95R



USA.gov is the U.S. government's official web portal to all federal, state and local government web resources and services.